TimeEST,TemperatureF,Dew PointF,Humidity,Sea Level PressureIn,VisibilityMPH,Wind Direction,Wind SpeedMPH,Gust SpeedMPH,PrecipitationIn,Events,Conditions,WindDirDegrees,DateUTC
12:52 AM,5.0,-2.9,70,30.07,10.0,Calm,Calm,-,N/A,,Overcast,0,2013-01-26 05:52:00
1:52 AM,5.0,-4.0,66,30.07,10.0,Calm,Calm,-,N/A,,Overcast,0,2013-01-26 06:52:00
2:52 AM,1.9,-4.0,76,30.06,10.0,Calm,Calm,-,N/A,,Scattered Clouds,0,2013-01-26 07:52:00
3:52 AM,5.0,-6.0,61,30.05,10.0,Calm,Calm,-,N/A,,Overcast,0,2013-01-26 08:52:00
4:52 AM,3.0,-5.1,69,30.06,10.0,Calm,Calm,-,N/A,,Overcast,0,2013-01-26 09:52:00
5:52 AM,-4.0,-9.0,79,30.06,10.0,Calm,Calm,-,N/A,,Clear,0,2013-01-26 10:52:00
6:52 AM,-9.0,-14.1,79,30.07,10.0,Calm,Calm,-,N/A,,Clear,0,2013-01-26 11:52:00
7:52 AM,-8.0,-14.1,75,30.10,10.0,Calm,Calm,-,N/A,,Clear,0,2013-01-26 12:52:00
8:52 AM,1.0,-7.1,69,30.10,10.0,Calm,Calm,-,N/A,,Clear,0,2013-01-26 13:52:00
9:52 AM,7.0,-6.0,55,30.09,10.0,NW,3.5,-,N/A,,Clear,320,2013-01-26 14:52:00
10:52 AM,9.0,-7.1,48,30.09,10.0,WNW,5.8,-,N/A,,Clear,300,2013-01-26 15:52:00
11:52 AM,10.9,-9.0,40,30.07,10.0,NNW,9.2,17.3,N/A,,Clear,340,2013-01-26 16:52:00
12:52 PM,12.0,-11.0,35,30.06,10.0,NNW,15.0,20.7,N/A,,Clear,340,2013-01-26 17:52:00
1:52 PM,12.9,-9.9,35,30.05,10.0,NNW,8.1,-,N/A,,Clear,330,2013-01-26 18:52:00
2:52 PM,12.9,-9.0,37,30.07,10.0,NNW,11.5,20.7,N/A,,Partly Cloudy,330,2013-01-26 19:52:00
3:52 PM,10.9,-11.0,37,30.09,10.0,WNW,9.2,-,N/A,,Partly Cloudy,300,2013-01-26 20:52:00
4:52 PM,9.0,-11.0,40,30.12,10.0,WNW,6.9,16.1,N/A,,Overcast,300,2013-01-26 21:52:00
5:52 PM,8.1,-9.9,44,30.14,10.0,WNW,9.2,-,N/A,,Mostly Cloudy,290,2013-01-26 22:52:00
6:52 PM,7.0,-7.1,53,30.16,10.0,Calm,Calm,-,N/A,,Overcast,0,2013-01-26 23:52:00
7:52 PM,7.0,-2.0,67,30.17,9.0,Calm,Calm,-,N/A,,Overcast,0,2013-01-27 00:52:00
8:52 PM,7.0,-2.0,67,30.15,10.0,Variable,5.8,-,N/A,,Overcast,0,2013-01-27 01:52:00
9:36 PM,6.8,-0.4,72,30.07,8.0,Variable,6.9,16.1,N/A,,Overcast,0,2013-01-27 02:36:00
9:52 PM,8.1,-0.9,67,30.16,8.0,Variable,5.8,-,N/A,,Overcast,0,2013-01-27 02:52:00
10:23 PM,8.6,-0.4,67,30.09,9.0,Variable,4.6,-,N/A,,Overcast,0,2013-01-27 03:23:00
10:52 PM,8.1,-0.9,67,30.19,9.0,WNW,4.6,-,N/A,,Overcast,290,2013-01-27 03:52:00
11:52 PM,8.1,-0.9,67,30.19,10.0,WNW,10.4,18.4,N/A,,Overcast,300,2013-01-27 04:52:00